User: anonymous
Location: Caltech
(34.1382°N, 118.1253°W)
Time: 21:12:54
(UTC-07:00)
Language:

Cosmos 2237 Rocket - Orbit

View from above orbital plane
View from above orbital plane
View from above satellite
View from above satellite

Ground track
Ground track

The orbit data is extracted from the following two-line orbital elements,

1 22566U 93016B   14105.12646815  .00000314  00000-0  18744-3 0   338
2 22566 071.0086 339.6612 0008393 097.9901 262.2174 14.14831213 87325
Epoch (UTC): 15 April 2014 03:02:06
Eccentricity: 0.0008393
inclination: 71.0086°
perigee height: 837 km
apogee height: 849 km
right ascension of ascending node: 339.6612°
argument of perigee: 97.9901°
revolutions per day: 14.14831213
mean anomaly at epoch: 262.2174°
orbit number at epoch: 8732

The dashed part of the orbit path shows where the satellite is in the earth's shadow,  

DLR